Regional Weather Roundup
Issued by NWS

Home | Current Version | Previous Version | Text Only | Print | Product List | Glossary On
Versions: 1 2 3 4 5 6 7 8 9 10 11 12 13 14 15 16 17 18 19 20 21 22 23 24 25 26 27 28 29 30 31 32 33 34 35 36 37 38 39 40 41 42 43 44 45 46 47 48 49 50
000
ASHW40 PHFO 261943
RWRHI

WEATHER ROUNDUP FOR HAWAII
NATIONAL WEATHER SERVICE HONOLULU HI
900 AM HST FRI DEC 26 2014

THIS IS AN AUTOMATED REPORT THAT HAS NOT BEEN QUALITY CONTROLLED.

NOTE..."FAIR" INDICATES FEW OR NO CLOUDS BELOW 12,000 FEET WITH NO
SIGNIFICANT WEATHER AND/OR OBSTRUCTIONS TO VISIBILITY.

* - THESE SITES REPORT LIMITED FIELDS

HIZ001>004-262000-
KAUAI-NIIHAU-

CITY           SKY/WX    TMP DP  RH WIND       PRES   REMARKS
LIHUE APT      SUNNY     71  61  70 W6        29.86R
PORT ALLEN*      N/A     70 N/A N/A NW5G10      N/A
POIPU*           N/A     66 N/A N/A NW1         N/A
PRINCEVILLE*     N/A     73 N/A N/A MISG        N/A
KOKOLE POINT*  NOT AVBL
MOLOAA DAIRY*  NOT AVBL
WAIMEA HTS*      N/A    N/A N/A N/A W6G13       N/A
PUU OPAE*        N/A     63  57  82 NW1G12      N/A
PUU LUA*       NOT AVBL
MAKAHA RIDGE*  NOT AVBL
$$

HIZ005>011-262000-
OAHU-

CITY           SKY/WX    TMP DP  RH WIND       PRES   REMARKS
HONOLULU       MOSUNNY   72  64  76 N8        29.85S
KALAELOA       SUNNY     73  62  68 CALM      29.87S
KANEOHE MCB    PTSUNNY   73  64  73 SW7       29.85S
WHEELER FIELD  FAIR      68  65  89 N6        29.86S
BELLOWS*         N/A    N/A N/A N/A SW3         N/A
KAHUKU*          N/A    N/A N/A N/A W3G10       N/A
WHEELER*       NOT AVBL
WAIANAE HARBOR NOT AVBL
DILLINGHAM*      N/A     73  66  78 SW2G8       N/A
KAHUKU TRN*      N/A     64  59  82 W3G17       N/A
KAWAILOA*        N/A     68  66  94 NW2G12      N/A
KII*             N/A     73  66  78 W12G18      N/A
MAKUA RANGE*     N/A     73  64  73 E2G10       N/A
OAHU FOREST NW   N/A     63 -13   4 CALM        N/A
SCHOFIELD BRK*   N/A     61  55  82 MISG        N/A
SCHOFIELD S*   NOT AVBL
WAIANAE VLY*     N/A    N/A N/A N/A S3          N/A
KUAOKALA*        N/A    N/A N/A N/A CALM        N/A
HONOULIUULI*   NOT AVBL
MOKUOLOE IS*     N/A    N/A N/A N/A MISG        N/A
PALEHUA*         N/A     82  59  44 CALM        N/A
WAIAWA PHB*    NOT AVBL
$$

HIZ012>013-262000-
MOLOKAI-

CITY           SKY/WX    TMP DP  RH WIND       PRES   REMARKS
MOLOKAI AIRPT  MOSUNNY   72  65  78 CALM      29.88R
KALAUPAPA      NOT AVBL
MAKAPULAPAI*     N/A     75  64  69 SW5G10      N/A
MOLOKAI 1*       N/A     66  63  88 N3G12       N/A
PUU ALII*        N/A     55  55  98 W1          N/A
$$

HIZ016-262000-
KAHOOLAWE-

CITY           SKY/WX    TMP DP  RH WIND       PRES   REMARKS
KAHOOLAWE*       N/A     68 N/A N/A NW9G17      N/A
HAKIOAWA*        N/A     71  64  78 MISG        N/A
HONOKANAIA*      N/A     77  64  65 W12G17    29.88R
KANELOA*         N/A     70  64  83 N7        29.07R
KEALIALALO*    NOT AVBL
LUA MAKIKA*    NOT AVBL
$$

HIZ014>015-262000-
LANAI-

CITY           SKY/WX    TMP DP  RH WIND       PRES   REMARKS
LANAI CITY     FAIR      68  62  80 NW10      29.92R
LANAI 1*         N/A     73  66  78 N5G14       N/A
$$

HIZ017>028-262000-
MAUI-

CITY           SKY/WX    TMP DP  RH WIND       PRES   REMARKS
KAHULUI        MOSUNNY   73  62  68 CALM      29.87R
KAPALUA-W MAUI MOSUNNY   73  61  64 S3        29.88R
HANA AIRPORT   SUNNY     73  64  73 CALM      29.89R
HANA*            N/A     73 N/A N/A S1          N/A
HALEAKALA SUMM   N/A     48   1  14 W25G38      N/A
MAALAEA BAY*   NOT AVBL
HALEAKALA*     NOT AVBL
KAUPO GAP*       N/A     64  55  72 N3G10       N/A
KULA 1*          N/A    N/A N/A N/A NE3         N/A
$$

HIZ023>026-262000-
BIG ISLAND OF HAWAII COAST AND LOWER SLOPES-

CITY           SKY/WX    TMP DP  RH WIND       PRES   REMARKS
KAILUA KONA    SUNNY     76  63  64 S3        29.85R
HILO           MOSUNNY   73  62  68 W5        29.85R
HONOKAA*       NOT AVBL
KAWAIHAE MWT*    N/A     77 N/A N/A SE7         N/A
KAWAIHAE*        N/A     77 N/A N/A S3          N/A
SOUTH POINT*     N/A     73 N/A N/A W5          N/A
UPOLU AIRPORT*   N/A    N/A N/A N/A S1          N/A
KAMUELA*       PTCLDY    68  55  64 SW3       29.97R
HAKALAU*         N/A     59  40  49 NE2         N/A
KALOKO-HONOKO*   N/A     81  63  54 S3        29.86R
PALI 2*          N/A     70  57  64 W3          N/A
KEALAKOMO*       N/A     81  68  65 W6          N/A
KAUPULEHU*       N/A     73  57  56 W8          N/A
KAPAPALA*        N/A     71  63  76 CALM        N/A
LOWER KAHUKU*    N/A     61  52  72 N2          N/A
PUHE CS*       NOT AVBL
PUHO CS*         N/A     75  56  51 NE2         N/A
PTA KEAMUKU*     N/A     63  52  67 CALM        N/A
WAIKOLOA*        N/A     73  57  56 SW5         N/A
$$

HIZ027>028-262000-
BIG ISLAND OF HAWAII INTERIOR AND SUMMMITS-

CITY           SKY/WX    TMP DP  RH WIND       PRES   REMARKS
BRADSHAW FIELD SUNNY     64  17  16 W7        30.16R
MK VISITOR CEN NOT AVBL
MAUNA KEA*       N/A     34 -11  14 NW59        N/A  WCI  16
MAUNA LOA*       N/A     48 -17   6 MISG        N/A
MAUNA LOA 1*   NOT AVBL
PTA KIPUKA*      N/A     61  39  44 W3          N/A
PTA RANGE 17*    N/A    N/A N/A N/A N3G9        N/A
PTA WEST*        N/A     63  46  55 SW1G12      N/A
NENE CABIN*      N/A    N/A N/A N/A S3G12       N/A
AHUMOA*          N/A    N/A N/A N/A SW8         N/A
PTA PORTABLE*  NOT AVBL
PUU MALI*      NOT AVBL
$$

HIC003-262000-
NORTHWEST ISLANDS-

CITY           SKY/WX    TMP DP  RH WIND       PRES   REMARKS
MIDWAY ISLAND  PTCLDY    72  68  88 W10       30.01R
MIDWAY NOS*    NOT AVBL
FRENCH FRIGATE NOT AVBL
$$

PHZ110>124-180-262000-
BUOY REPORTS

STATION/POSITION TIME  TEMP    WIND        PRES    WAVE   SWELL
                       AIR SEA DIR/SP/G            HT/PER HT/DIR
                 (UTC) (F)     (DEG/KT/KT) (MB)    (FT/S) (FT/D)
BUOY 51001       NOT AVBL
BUOY 51101       1900   70 76  320/ 17/ 21 1011.3R  10/10   8/ 30
BUOY 51100       NOT AVBL
BUOY 51003       1900   74 78  350/ 14/ 16 1012.1R   8/11   7
BUOY 51004       1850   77 78  310/ 10/ 12 1011.1R   7/10   7/ 60
BARBERS PT BUOY  NOT AVBL
WAIMEA BAY BUOY  1900      77                N/A     9/ 9   3/350
KAILUA BAY BUOY  1900      76                N/A     7/10   2/ 30
LANAI BUOY       1900      78                N/A     3/10   2/190
BARBERS PT 2     1900      77                N/A     4/10   2/290
PAUWELA MAUI     1900      77                N/A     8/11   3/ 10
HILO             1900      77                N/A     7/10   3/ 60
KANEOHE BAY BUOY 1900      76                N/A     7/ 9   2/ 40
HANALEI KAUAI    NOT AVBL
KAHULUI HARBOR   1900   74 76  150/  3/  5 1011.2R
HONOLULU HARBOR  1900   73     360/  4/  6 1011.4R
KILO NALU        NOT AVBL
HILO HARBOR      1900   74     230/  3/  4 1010.5R
MOKUOLOE         1900      75              1011.2R
NAWILIWILI       1900      78                N/A
WHOTS BUOY       NOT AVBL
BUOY 51028       NOT AVBL
$$

......................KEY........................................
  SKY/WX - SKY CONDITIONS/PRESENT WEATHER
  TMP    - TEMPERATURE IN FAHRENHEIT
  DWPT   - DEWPOINT IN FAHRENHEIT
  RH     - RELATIVE HUMIDITY IN PERCENT
  WIND   - DIRECTION AND SPEED /MPH FOR ISLANDS...KTS FOR BUOYS/
  PRES   - MEAN SEA LEVEL PRESSURE IN INCHES OF HG
  VSB    - VISIBILITY IN MILES
  HX     - HEAT INDEX
  WCI    - WIND CHILL INDEX
  VRB    - VARIABLE WIND DIRECTION
  N/A    - NOT AVAILABLE



USA.gov is the U.S. government's official web portal to all federal, state and local government web resources and services.